EWG8FT LROP-EDDL

Flight info

Callsign EWG8FT
Flight time 2h 9m
Altitude 38000
Route SOKRU1K SOKRU DCT OXDOC DCT BUDOP DCT PATAK DCT LALES DCT RAPET DCT MASEK DCT AMETU T852 TINSA T854 DOMUX DOMUX1A
Aircraft A319/M-SDE2E3FGIJ1RWXYZ/EB1

Departure

Time 2026-05-01 08:51
Airport Bucharest Henri Coandă International Airport (LROP)

Arrival

Time 2026-05-01 11:01
Airport Düsseldorf Airport (EDDL)
Time Latitude Longitude Altitude Speed Heading
2026-05-01 08:22 44.57136 26.08059 320 ft 0 kts 174°
2026-05-01 08:47 44.57153 26.08056 318 ft 4 kts 168°
2026-05-01 08:47 44.57178 26.08044 320 ft 4 kts 142°
2026-05-01 08:47 44.57191 26.08019 320 ft 2 kts 84°
2026-05-01 08:47 44.57190 26.08011 320 ft 0 kts 84°
2026-05-01 08:49 44.57192 26.08030 320 ft 5 kts 84°
2026-05-01 08:49 44.57198 26.08122 320 ft 14 kts 84°
2026-05-01 08:50 44.57216 26.08296 321 ft 22 kts 75°
2026-05-01 08:50 44.57271 26.08501 321 ft 25 kts 27°
2026-05-01 08:50 44.57447 26.08473 320 ft 28 kts 354°
2026-05-01 08:50 44.57618 26.08449 323 ft 21 kts 354°
2026-05-01 08:51 44.57675 26.08615 323 ft 38 kts 83°
2026-05-01 08:51 44.57732 26.09296 318 ft 101 kts 84°
2026-05-01 08:51 44.57827 26.10523 330 ft 150 kts 83°
2026-05-01 08:51 44.57942 26.11960 973 ft 146 kts 80°
2026-05-01 08:52 44.58060 26.13370 1614 ft 148 kts 79°
2026-05-01 08:52 44.58192 26.14882 2052 ft 169 kts 79°
2026-05-01 08:52 44.58481 26.16534 2547 ft 180 kts 54°
2026-05-01 08:52 44.59543 26.17442 3164 ft 193 kts
2026-05-01 08:53 44.60849 26.16840 3710 ft 216 kts 319°
2026-05-01 08:53 44.61812 26.15093 4468 ft 235 kts 307°
2026-05-01 08:53 44.62750 26.13073 5252 ft 254 kts 304°
2026-05-01 08:53 44.63684 26.10932 6281 ft 259 kts 303°
2026-05-01 08:54 44.64614 26.08746 7367 ft 262 kts 303°
2026-05-01 08:54 44.65557 26.06529 8353 ft 267 kts 303°
2026-05-01 08:54 44.66521 26.04272 9333 ft 271 kts 304°
2026-05-01 08:54 44.67504 26.01983 10290 ft 276 kts 304°
2026-05-01 08:55 44.68527 25.99617 10844 ft 295 kts 304°
2026-05-01 08:55 44.69633 25.97070 11273 ft 313 kts 304°
2026-05-01 08:55 44.70782 25.94419 12000 ft 321 kts 304°
2026-05-01 08:55 44.71948 25.91716 12784 ft 326 kts 304°
2026-05-01 08:56 44.73130 25.88965 13557 ft 332 kts 304°
2026-05-01 08:56 44.74331 25.86164 14303 ft 337 kts 304°
2026-05-01 08:56 44.75545 25.83329 14993 ft 340 kts 304°
2026-05-01 08:56 44.76773 25.80462 15714 ft 344 kts 304°
2026-05-01 08:57 44.78015 25.77567 16400 ft 347 kts 304°
2026-05-01 08:57 44.79267 25.74649 17100 ft 350 kts 304°
2026-05-01 08:57 44.80516 25.71740 17793 ft 353 kts 304°
2026-05-01 08:57 44.81793 25.68760 18503 ft 357 kts 304°
2026-05-01 08:58 44.83079 25.65753 19116 ft 360 kts 304°
2026-05-01 08:58 44.84374 25.62723 19742 ft 362 kts 303°
2026-05-01 08:58 44.85677 25.59668 20375 ft 365 kts 303°
2026-05-01 08:58 44.86986 25.56592 21021 ft 367 kts 303°
2026-05-01 08:59 44.88302 25.53495 21646 ft 370 kts 303°
2026-05-01 08:59 44.89629 25.50376 22255 ft 372 kts 303°
2026-05-01 08:59 44.90963 25.47240 22861 ft 374 kts 303°
2026-05-01 08:59 44.92308 25.44078 23460 ft 377 kts 303°
2026-05-01 09:00 44.93659 25.40893 24031 ft 380 kts 302°
2026-05-01 09:00 44.95017 25.37682 24521 ft 382 kts 302°
2026-05-01 09:00 44.96381 25.34448 25006 ft 384 kts 302°
2026-05-01 09:00 44.97751 25.31201 25483 ft 386 kts 302°
2026-05-01 09:01 44.99132 25.27926 25969 ft 389 kts 302°
2026-05-01 09:01 45.00520 25.24631 26439 ft 391 kts 302°
2026-05-01 09:01 45.01915 25.21317 26900 ft 394 kts 302°
2026-05-01 09:01 45.03320 25.17978 27363 ft 396 kts 302°
2026-05-01 09:02 45.04794 25.14679 27812 ft 398 kts 304°
2026-05-01 09:02 45.06352 25.11413 28274 ft 401 kts 306°
2026-05-01 09:02 45.07948 25.08168 28730 ft 403 kts 306°
2026-05-01 09:02 45.09542 25.04944 29175 ft 406 kts 306°
2026-05-01 09:03 45.11157 25.01649 29608 ft 409 kts 306°
2026-05-01 09:03 45.12770 24.98314 30030 ft 412 kts 305°
2026-05-01 09:03 45.14382 24.94943 30420 ft 415 kts 305°
2026-05-01 09:03 45.15996 24.91536 30749 ft 418 kts 305°
2026-05-01 09:04 45.17620 24.88099 31051 ft 421 kts 305°
2026-05-01 09:04 45.19253 24.84632 31351 ft 424 kts 305°
2026-05-01 09:04 45.20895 24.81142 31645 ft 427 kts 305°
2026-05-01 09:04 45.22552 24.77622 31933 ft 430 kts 305°
2026-05-01 09:05 45.24217 24.74094 32322 ft 430 kts 305°
2026-05-01 09:05 45.25880 24.70565 32732 ft 430 kts 305°
2026-05-01 09:05 45.27543 24.67034 33130 ft 430 kts 306°
2026-05-01 09:05 45.29205 24.63496 33519 ft 431 kts 306°
2026-05-01 09:06 45.30866 24.59959 33922 ft 431 kts 306°
2026-05-01 09:06 45.32528 24.56414 34315 ft 431 kts 306°
2026-05-01 09:06 45.34193 24.52863 34642 ft 431 kts 306°
2026-05-01 09:06 45.35856 24.49312 34959 ft 432 kts 306°
2026-05-01 09:07 45.37523 24.45756 35269 ft 432 kts 306°
2026-05-01 09:07 45.39187 24.42202 35576 ft 432 kts 305°
2026-05-01 09:07 45.40851 24.38639 35871 ft 432 kts 305°
2026-05-01 09:07 45.42514 24.35069 36172 ft 432 kts 305°
2026-05-01 09:08 45.44171 24.31496 36456 ft 433 kts 305°
2026-05-01 09:08 45.45830 24.27916 36732 ft 433 kts 305°
2026-05-01 09:08 45.47491 24.24339 36993 ft 433 kts 305°
2026-05-01 09:08 45.49154 24.20754 37266 ft 434 kts 305°
2026-05-01 09:09 45.50813 24.17162 37524 ft 434 kts 305°
2026-05-01 09:09 45.52467 24.13567 37792 ft 434 kts 305°
2026-05-01 09:09 45.54124 24.09970 38056 ft 434 kts 305°
2026-05-01 09:09 45.55786 24.06365 38262 ft 435 kts 305°
2026-05-01 09:10 45.59110 23.99139 38317 ft 436 kts 305°
2026-05-01 09:10 45.62410 23.91949 38322 ft 436 kts 305°
2026-05-01 09:11 45.65734 23.84687 38320 ft 437 kts 305°
2026-05-01 09:11 45.69053 23.77406 38316 ft 437 kts 305°
2026-05-01 09:12 45.72378 23.70107 38312 ft 438 kts 305°
2026-05-01 09:12 45.75702 23.62805 38306 ft 438 kts 305°
2026-05-01 09:13 45.79020 23.55470 38303 ft 439 kts 305°
2026-05-01 09:13 45.82335 23.48117 38307 ft 439 kts 305°
2026-05-01 09:14 45.85655 23.40753 38307 ft 440 kts 305°
2026-05-01 09:14 45.88972 23.33385 38308 ft 440 kts 305°
2026-05-01 09:15 45.92263 23.26045 38306 ft 440 kts 305°
2026-05-01 09:15 45.95565 23.18651 38306 ft 440 kts 305°
2026-05-01 09:16 45.98864 23.11243 38309 ft 440 kts 306°
2026-05-01 09:17 46.03810 23.00112 38310 ft 440 kts 306°
2026-05-01 09:17 46.08745 22.88955 38311 ft 441 kts 306°
2026-05-01 09:18 46.13679 22.77774 38313 ft 441 kts 306°
2026-05-01 09:19 46.18604 22.66576 38316 ft 441 kts 306°
2026-05-01 09:20 46.23504 22.55348 38312 ft 440 kts 306°
2026-05-01 09:21 46.30010 22.40416 38316 ft 441 kts 306°
2026-05-01 09:21 46.34891 22.29139 38324 ft 441 kts 306°
2026-05-01 09:22 46.40842 22.15341 38329 ft 441 kts 306°
2026-05-01 09:23 46.45701 22.04010 38333 ft 441 kts 306°
2026-05-01 09:24 46.50556 21.92678 38334 ft 441 kts 306°
2026-05-01 09:25 46.56997 21.77515 38330 ft 441 kts 306°
2026-05-01 09:26 46.61818 21.66130 38325 ft 441 kts 306°
2026-05-01 09:26 46.66636 21.54722 38334 ft 441 kts 306°
2026-05-01 09:27 46.72103 21.44179 38335 ft 436 kts 316°
2026-05-01 09:28 46.76132 21.37583 38340 ft 436 kts 316°
2026-05-01 09:28 46.80155 21.30961 38347 ft 436 kts 316°
2026-05-01 09:29 46.86182 21.20996 38342 ft 437 kts 316°
2026-05-01 09:30 46.92210 21.11002 38352 ft 437 kts 316°
2026-05-01 09:30 46.98228 21.00984 38360 ft 437 kts 316°
2026-05-01 09:31 47.02237 20.94288 38365 ft 437 kts 316°
2026-05-01 09:32 47.08248 20.84235 38366 ft 437 kts 316°
2026-05-01 09:32 47.14243 20.74159 38367 ft 437 kts 316°
2026-05-01 09:33 47.18233 20.67421 38374 ft 437 kts 316°
2026-05-01 09:34 47.24212 20.57299 38371 ft 437 kts 316°
2026-05-01 09:34 47.30163 20.47217 38376 ft 437 kts 316°
2026-05-01 09:35 47.36125 20.37054 38370 ft 437 kts 316°
2026-05-01 09:36 47.40099 20.30274 38360 ft 437 kts 316°
2026-05-01 09:36 47.44067 20.23475 38354 ft 437 kts 316°
2026-05-01 09:37 47.48025 20.16665 38351 ft 437 kts 316°
2026-05-01 09:37 47.53963 20.06427 38356 ft 437 kts 317°
2026-05-01 09:38 47.59895 19.96181 38353 ft 437 kts 317°
2026-05-01 09:39 47.65808 19.85916 38351 ft 436 kts 317°
2026-05-01 09:39 47.69739 19.79068 38355 ft 436 kts 317°
2026-05-01 09:40 47.75592 19.68833 38354 ft 435 kts 317°
2026-05-01 09:41 47.79503 19.61982 38351 ft 434 kts 317°
2026-05-01 09:41 47.85364 19.51697 38362 ft 434 kts 317°
2026-05-01 09:42 47.89253 19.44829 38363 ft 433 kts 317°
2026-05-01 09:43 47.97010 19.31091 38363 ft 432 kts 317°
2026-05-01 09:43 48.00867 19.24226 38358 ft 432 kts 317°
2026-05-01 09:44 48.06643 19.13901 38358 ft 431 kts 317°
2026-05-01 09:45 48.10485 19.07102 38356 ft 430 kts 317°
2026-05-01 09:45 48.16340 18.96919 38361 ft 430 kts 317°
2026-05-01 09:46 48.20239 18.90115 38361 ft 430 kts 317°
2026-05-01 09:46 48.24117 18.83293 38360 ft 430 kts 317°
2026-05-01 09:47 48.27980 18.76448 38363 ft 430 kts 317°
2026-05-01 09:47 48.31849 18.69598 38361 ft 429 kts 317°
2026-05-01 09:48 48.35718 18.62758 38363 ft 429 kts 317°
2026-05-01 09:48 48.39574 18.55900 38364 ft 429 kts 317°
2026-05-01 09:49 48.43398 18.49072 38359 ft 429 kts 317°
2026-05-01 09:49 48.47240 18.42197 38358 ft 429 kts 317°
2026-05-01 09:50 48.51088 18.35317 38362 ft 429 kts 317°
2026-05-01 09:50 48.54936 18.28414 38364 ft 430 kts 317°
2026-05-01 09:51 48.58770 18.21495 38365 ft 430 kts 317°
2026-05-01 09:51 48.62604 18.14571 38366 ft 430 kts 317°
2026-05-01 09:52 48.66441 18.07627 38371 ft 430 kts 317°
2026-05-01 09:52 48.70271 18.00681 38375 ft 430 kts 316°
2026-05-01 09:53 48.74096 17.93714 38381 ft 430 kts 316°
2026-05-01 09:53 48.77911 17.86735 38380 ft 430 kts 316°
2026-05-01 09:54 48.81723 17.79749 38397 ft 430 kts 316°
2026-05-01 09:54 48.85484 17.72781 38395 ft 432 kts 313°
2026-05-01 09:55 48.88311 17.64570 38396 ft 444 kts 299°
2026-05-01 09:55 48.90696 17.55904 38396 ft 444 kts 299°
2026-05-01 09:56 48.93068 17.47236 38407 ft 444 kts 299°
2026-05-01 09:56 48.95443 17.38561 38408 ft 444 kts 299°
2026-05-01 09:57 48.97812 17.29874 38402 ft 444 kts 299°
2026-05-01 09:57 49.00174 17.21182 38404 ft 444 kts 299°
2026-05-01 09:58 49.02527 17.12487 38398 ft 444 kts 299°
2026-05-01 09:58 49.04880 17.03784 38398 ft 444 kts 299°
2026-05-01 09:59 49.07226 16.95067 38402 ft 444 kts 298°
2026-05-01 09:59 49.09542 16.86395 38405 ft 444 kts 298°
2026-05-01 10:00 49.11867 16.77669 38386 ft 443 kts 298°
2026-05-01 10:00 49.14184 16.68953 38390 ft 443 kts 298°
2026-05-01 10:01 49.16497 16.60221 38402 ft 444 kts 298°
2026-05-01 10:01 49.18807 16.51477 38409 ft 443 kts 298°
2026-05-01 10:02 49.21107 16.42723 38406 ft 444 kts 298°
2026-05-01 10:02 49.23398 16.33974 38408 ft 443 kts 297°
2026-05-01 10:03 49.25683 16.25204 38410 ft 443 kts 297°
2026-05-01 10:03 49.27966 16.16445 38412 ft 443 kts 297°
2026-05-01 10:04 49.30237 16.07671 38412 ft 443 kts 297°
2026-05-01 10:04 49.32495 15.98892 38412 ft 443 kts 297°
2026-05-01 10:05 49.34737 15.90161 38418 ft 443 kts 297°
2026-05-01 10:05 49.36980 15.81371 38414 ft 442 kts 297°
2026-05-01 10:06 49.39224 15.72579 38420 ft 442 kts 297°
2026-05-01 10:06 49.41457 15.63785 38420 ft 442 kts 297°
2026-05-01 10:07 49.43678 15.54982 38424 ft 442 kts 297°
2026-05-01 10:07 49.45896 15.46176 38421 ft 442 kts 296°
2026-05-01 10:08 49.49217 15.32961 38419 ft 442 kts 296°
2026-05-01 10:09 49.51426 15.24140 38425 ft 442 kts 296°
2026-05-01 10:09 49.53617 15.15311 38415 ft 442 kts 296°
2026-05-01 10:10 49.55799 15.06460 38419 ft 442 kts 296°
2026-05-01 10:10 49.59067 14.93186 38418 ft 442 kts 296°
2026-05-01 10:11 49.61238 14.84317 38423 ft 442 kts 296°
2026-05-01 10:11 49.63383 14.75510 38416 ft 442 kts 296°
2026-05-01 10:12 49.65193 14.68072 38414 ft 442 kts 296°
2026-05-01 10:13 49.68774 14.53296 38418 ft 442 kts 296°
2026-05-01 10:13 49.70913 14.44394 38420 ft 442 kts 295°
2026-05-01 10:14 49.74115 14.31022 38427 ft 442 kts 295°
2026-05-01 10:14 49.76240 14.22100 38430 ft 442 kts 295°
2026-05-01 10:15 49.78353 14.13177 38431 ft 442 kts 295°
2026-05-01 10:15 49.80467 14.04245 38429 ft 442 kts 295°
2026-05-01 10:16 49.82573 13.95317 38435 ft 442 kts 295°
2026-05-01 10:17 49.85696 13.81951 38439 ft 441 kts 295°
2026-05-01 10:17 49.88817 13.68541 38432 ft 441 kts 295°
2026-05-01 10:18 49.91911 13.55111 38435 ft 441 kts 295°
2026-05-01 10:19 49.93635 13.47605 38435 ft 441 kts 295°
2026-05-01 10:19 49.95682 13.38698 38440 ft 441 kts 295°
2026-05-01 10:20 49.98750 13.25219 37962 ft 441 kts 294°
2026-05-01 10:20 49.99764 13.20741 37553 ft 439 kts 295°
2026-05-01 10:20 50.00777 13.16263 37147 ft 440 kts 294°
2026-05-01 10:21 50.01805 13.11727 36755 ft 448 kts 294°
2026-05-01 10:21 50.03880 13.02525 36434 ft 453 kts 294°
2026-05-01 10:22 50.07001 12.88593 36433 ft 455 kts 294°
2026-05-01 10:23 50.10107 12.74641 36435 ft 454 kts 294°
2026-05-01 10:23 50.13192 12.60686 36432 ft 454 kts 294°
2026-05-01 10:24 50.17279 12.42060 36425 ft 454 kts 294°
2026-05-01 10:25 50.21287 12.23388 36426 ft 454 kts 292°
2026-05-01 10:26 50.23215 12.14065 36432 ft 454 kts 292°
2026-05-01 10:27 50.27097 11.95313 36431 ft 453 kts 292°
2026-05-01 10:28 50.30001 11.81242 36426 ft 453 kts 292°
2026-05-01 10:28 50.32887 11.67166 36429 ft 453 kts 292°
2026-05-01 10:29 50.35744 11.53068 36432 ft 453 kts 292°
2026-05-01 10:30 50.38042 11.43985 36424 ft 445 kts 304°
2026-05-01 10:30 50.41086 11.35537 36415 ft 445 kts 304°
2026-05-01 10:31 50.47165 11.18696 36414 ft 445 kts 304°
2026-05-01 10:32 50.51717 11.05985 36413 ft 445 kts 303°
2026-05-01 10:33 50.57761 10.88986 36410 ft 445 kts 303°
2026-05-01 10:34 50.62279 10.76212 36408 ft 445 kts 303°
2026-05-01 10:34 50.65286 10.67680 36411 ft 445 kts 303°
2026-05-01 10:35 50.69786 10.54858 36412 ft 445 kts 303°
2026-05-01 10:35 50.72761 10.46293 36408 ft 445 kts 302°
2026-05-01 10:36 50.77202 10.33477 36409 ft 445 kts 303°
2026-05-01 10:37 50.80185 10.24904 36403 ft 445 kts 302°
2026-05-01 10:37 50.84628 10.12049 36402 ft 446 kts 302°
2026-05-01 10:38 50.87583 10.03414 36398 ft 446 kts 302°
2026-05-01 10:38 50.90536 9.94782 36395 ft 446 kts 302°
2026-05-01 10:39 50.93487 9.86135 36397 ft 446 kts 302°
2026-05-01 10:39 50.94964 9.81793 36009 ft 450 kts 302°
2026-05-01 10:39 50.96467 9.77365 35154 ft 458 kts 302°
2026-05-01 10:40 50.97960 9.72944 34731 ft 453 kts 302°
2026-05-01 10:40 50.99442 9.68537 34102 ft 453 kts 302°
2026-05-01 10:40 51.00924 9.64116 33324 ft 454 kts 302°
2026-05-01 10:40 51.02410 9.59670 32507 ft 457 kts 301°
2026-05-01 10:41 51.03901 9.55204 31660 ft 459 kts 301°
2026-05-01 10:41 51.05400 9.50712 30794 ft 462 kts 301°
2026-05-01 10:41 51.08379 9.41762 29488 ft 454 kts 301°
2026-05-01 10:42 51.09853 9.37333 28874 ft 451 kts 301°
2026-05-01 10:42 51.11315 9.32934 28474 ft 449 kts 301°
2026-05-01 10:42 51.12765 9.28548 28027 ft 447 kts 301°
2026-05-01 10:42 51.14206 9.24177 27589 ft 444 kts 301°
2026-05-01 10:43 51.15635 9.19836 27137 ft 441 kts 301°
2026-05-01 10:43 51.17037 9.15492 26544 ft 441 kts 298°
2026-05-01 10:43 51.17937 9.10816 25583 ft 453 kts 283°
2026-05-01 10:43 51.18496 9.05941 25264 ft 442 kts 283°
2026-05-01 10:44 51.19055 9.01165 24782 ft 435 kts 283°
2026-05-01 10:44 51.19616 8.96446 24238 ft 431 kts 283°
2026-05-01 10:44 51.20176 8.91767 23643 ft 428 kts 283°
2026-05-01 10:44 51.20727 8.87125 23027 ft 425 kts 283°
2026-05-01 10:45 51.21270 8.82516 22436 ft 422 kts 283°
2026-05-01 10:45 51.21808 8.77934 21873 ft 419 kts 283°
2026-05-01 10:45 51.22361 8.73386 21335 ft 416 kts 283°
2026-05-01 10:45 51.22927 8.68878 20797 ft 413 kts 283°
2026-05-01 10:46 51.23498 8.64402 20185 ft 413 kts 283°
2026-05-01 10:46 51.24072 8.59922 19686 ft 410 kts 283°
2026-05-01 10:46 51.24637 8.55474 19225 ft 408 kts 283°
2026-05-01 10:46 51.25192 8.51044 18756 ft 406 kts 283°
2026-05-01 10:47 51.25738 8.46638 18252 ft 404 kts 283°
2026-05-01 10:47 51.26274 8.42250 17791 ft 401 kts 282°
2026-05-01 10:47 51.26808 8.37891 17317 ft 399 kts 282°
2026-05-01 10:47 51.27334 8.33557 16872 ft 396 kts 282°
2026-05-01 10:48 51.27857 8.29252 16419 ft 393 kts 282°
2026-05-01 10:48 51.28379 8.24982 15974 ft 391 kts 282°
2026-05-01 10:48 51.28898 8.20739 15529 ft 388 kts 282°
2026-05-01 10:48 51.29412 8.16521 15091 ft 386 kts 282°
2026-05-01 10:49 51.29918 8.12328 14651 ft 383 kts 282°
2026-05-01 10:49 51.30415 8.08155 14213 ft 381 kts 282°
2026-05-01 10:49 51.30906 8.04011 13744 ft 379 kts 282°
2026-05-01 10:49 51.31401 7.99886 13325 ft 377 kts 282°
2026-05-01 10:50 51.31893 7.95774 12882 ft 375 kts 281°
2026-05-01 10:50 51.32378 7.91687 12448 ft 374 kts 281°
2026-05-01 10:50 51.32858 7.87619 12023 ft 371 kts 281°
2026-05-01 10:50 51.33329 7.83636 11610 ft 369 kts 281°
2026-05-01 10:51 51.33810 7.79560 11177 ft 367 kts 281°
2026-05-01 10:51 51.34275 7.75598 10762 ft 366 kts 281°
2026-05-01 10:51 51.34744 7.71608 10340 ft 364 kts 281°
2026-05-01 10:51 51.35208 7.67637 9898 ft 362 kts 281°
2026-05-01 10:52 51.35665 7.63691 9483 ft 360 kts 280°
2026-05-01 10:52 51.36115 7.59768 8914 ft 360 kts 280°
2026-05-01 10:52 51.36565 7.55847 8472 ft 355 kts 280°
2026-05-01 10:52 51.37011 7.51990 7979 ft 351 kts 280°
2026-05-01 10:53 51.37458 7.48168 7457 ft 348 kts 280°
2026-05-01 10:53 51.37900 7.44369 6953 ft 346 kts 280°
2026-05-01 10:53 51.38338 7.40586 6443 ft 345 kts 280°
2026-05-01 10:53 51.38771 7.36832 5951 ft 342 kts 279°
2026-05-01 10:54 51.39202 7.33100 5466 ft 340 kts 279°
2026-05-01 10:54 51.39623 7.29453 5311 ft 325 kts 279°
2026-05-01 10:54 51.40024 7.25959 5150 ft 313 kts 279°
2026-05-01 10:54 51.40410 7.22561 4897 ft 307 kts 279°
2026-05-01 10:55 51.40787 7.19230 4642 ft 301 kts 278°
2026-05-01 10:55 51.41157 7.15946 4370 ft 299 kts 278°
2026-05-01 10:55 51.41522 7.12705 4178 ft 292 kts 279°
2026-05-01 10:55 51.41881 7.09545 4030 ft 285 kts 279°
2026-05-01 10:56 51.42227 7.06462 3901 ft 278 kts 278°
2026-05-01 10:56 51.42468 7.03451 3776 ft 267 kts 264°
2026-05-01 10:56 51.41873 7.00853 3629 ft 235 kts 221°
2026-05-01 10:56 51.40641 6.99583 3509 ft 206 kts 194°
2026-05-01 10:57 51.39388 6.98483 3267 ft 211 kts 222°
2026-05-01 10:57 51.38597 6.96494 3048 ft 215 kts 232°
2026-05-01 10:57 51.37739 6.94587 2739 ft 208 kts 229°
2026-05-01 10:57 51.36887 6.92802 2452 ft 195 kts 227°
2026-05-01 10:58 51.36078 6.91104 2203 ft 189 kts 227°
2026-05-01 10:58 51.35290 6.89441 1915 ft 185 kts 228°
2026-05-01 10:58 51.34577 6.87916 1696 ft 160 kts 226°
2026-05-01 10:58 51.33944 6.86540 1445 ft 146 kts 228°
2026-05-01 10:59 51.33333 6.85220 1177 ft 147 kts 227°
2026-05-01 10:59 51.32719 6.83977 1050 ft 142 kts 225°
2026-05-01 10:59 51.32130 6.82746 909 ft 139 kts 226°
2026-05-01 10:59 51.31560 6.81555 724 ft 131 kts 224°
2026-05-01 11:00 51.31000 6.80383 574 ft 133 kts 224°
2026-05-01 11:00 51.30440 6.79211 412 ft 133 kts 224°
2026-05-01 11:00 51.29882 6.78041 238 ft 133 kts 222°
2026-05-01 11:00 51.29333 6.76899 132 ft 120 kts 230°
2026-05-01 11:01 51.28945 6.76086 127 ft 63 kts 233°
2026-05-01 11:01 51.28696 6.75701 124 ft 38 kts 201°
2026-05-01 11:01 51.28447 6.75775 123 ft 39 kts 143°
2026-05-01 11:01 51.28252 6.76028 128 ft 39 kts 140°
2026-05-01 11:02 51.28242 6.76240 126 ft 24 kts 48°
2026-05-01 11:02 51.28343 6.76475 126 ft 28 kts 52°
2026-05-01 11:02 51.28463 6.76722 124 ft 20 kts 59°
2026-05-01 11:02 51.28396 6.76838 125 ft 16 kts 148°
2026-05-01 11:03 51.28366 6.76981 127 ft 12 kts 49°
2026-05-01 11:03 51.28375 6.77035 129 ft 6 kts 120°
2026-05-01 11:03 51.28342 6.77075 127 ft 4 kts 143°
2026-05-01 11:03 51.28338 6.77080 127 ft 0 kts 143°